FW2569 Weather Reports


Display with metric or nautical units.
time (UTC)temp
F
wind
direction
speed
MPH
gust
MPH
rain 1hr
in
rain 24hr
in
rain mn
in
humidity
%
barometer
mb
20211023070214 72 211 3.0 8.0 0.00 0.00 0.00 95 1013.4
20211023064506 72 224 3.0 10.0 0.00 0.00 0.00 96 1013.6
20211023063224 71 190 0.0 0.0 0.00 0.00 0.00 95 1013.5
20211023061559 70 164 0.0 0.0 0.00 0.00 0.00 93 1013.5
20211023060311 71 212 0.0 0.0 0.00 0.00 0.00 93 1013.6
20211023054527 71 224 0.0 0.0 0.00 0.00 0.00 93 1013.7
20211023053305 71 202 0.0 2.0 0.00 0.00 0.00 92 1013.8
20211023051636 71 200 0.0 5.0 0.00 0.00 0.00 91 1013.8
20211023044557 71 186 1.0 6.0 0.00 0.00 0.00 89 1014.1
20211023043007 72 188 2.0 6.0 0.00 0.00 0.00 88 1014.2
20211023041718 72 184 1.0 8.0 0.00 0.00 0.00 86 1014.3
20211023040005 72 174 4.0 7.0 0.00 0.00 0.00 85 1014.3
20211023034717 71 192 1.0 5.0 0.00 0.00 0.00 85 1014.2
20211023033111 72 200 0.0 3.0 0.00 0.00 0.00 84 1014.2
20211023031640 72 185 0.0 1.0 0.00 0.00 0.00 84 1014.0
20211023030101 71 176 0.0 3.0 0.00 0.00 0.00 85 1014.0
20211023024555 70 203 0.0 0.0 0.00 0.00 0.00 87 1014.1
20211023023051 69 181 0.0 0.0 0.00 0.00 0.00 88 1014.1
20211023021522 69 181 0.0 0.0 0.00 0.00 0.00 88 1014.1
20211023020115 69 181 0.0 0.0 0.00 0.00 0.00 86 1014.1
20211023014746 70 181 0.0 0.0 0.00 0.00 0.00 83 1014.0
20211023013041 71 181 0.0 0.0 0.00 0.00 0.00 83 1013.9
20211023011517 72 181 0.0 0.0 0.00 0.00 0.00 81 1013.8
20211023010121 73 181 0.0 0.0 0.00 0.00 0.00 80 1013.7
20211023004519 74 181 0.0 0.0 0.00 0.00 0.00 79 1013.7
20211023003206 75 181 0.0 0.0 0.00 0.00 0.00 78 1013.6
20211023001528 76 181 0.0 0.0 0.00 0.00 0.00 77 1013.6
20211023000150 78 181 0.0 0.0 0.00 0.00 0.00 74 1013.5
20211022234544 79 181 0.0 0.0 0.00 0.00 0.00 71 1013.3
20211022233154 82 171 0.0 2.0 0.00 0.00 0.00 66 1013.4
20211022231610 83 190 0.0 2.0 0.00 0.00 0.00 64 1013.4
20211022224540 84 183 0.0 2.0 0.00 0.00 0.00 64 1013.4
20211022223017 84 158 2.0 6.0 0.00 0.00 0.00 62 1013.5
20211022221625 85 162 2.0 9.0 0.00 0.00 0.00 62 1013.6
20211022220002 86 198 4.0 10.0 0.00 0.00 0.00 60 1013.7
20211022214635 86 170 0.0 7.0 0.00 0.00 0.00 60 1013.8
20211022213031 86 150 3.0 7.0 0.00 0.00 0.00 60 1013.9
20211022211722 84 149 1.0 7.0 0.00 0.00 0.00 63 1014.0
20211022210112 84 143 2.0 6.0 0.00 0.00 0.00 60 1014.1
20211022204651 86 149 4.0 8.0 0.00 0.00 0.00 58 1014.1
20211022203059 86 221 3.0 8.0 0.00 0.00 0.00 57 1014.1
20211022201510 86 162 1.0 6.0 0.00 0.00 0.00 60 1014.3
20211022200109 85 170 3.0 7.0 0.00 0.00 0.00 57 1014.7
20211022194518 86 167 2.0 6.0 0.00 0.00 0.00 60 1014.8
20211022193046 86 183 3.0 8.0 0.00 0.00 0.00 59 1015.1
20211022191548 85 131 1.0 8.0 0.00 0.00 0.00 60 1015.3
20211022190223 85 143 5.0 7.0 0.00 0.00 0.00 62 1015.7
20211022184513 86 137 2.0 9.0 0.00 0.00 0.00 62 1016.0
20211022183104 85 150 3.0 8.0 0.00 0.00 0.00 62 1016.2
20211022181535 85 92 0.0 7.0 0.00 0.00 0.00 64 1016.5
20211022174525 84 75 2.0 7.0 0.00 0.00 0.00 67 1017.0
20211022173003 83 188 2.0 7.0 0.00 0.00 0.00 68 1017.2
20211022171618 83 143 1.0 7.0 0.00 0.00 0.00 70 1017.4
20211022170006 82 160 2.0 6.0 0.00 0.00 0.00 70 1017.5
20211022164601 82 188 0.0 5.0 0.00 0.00 0.00 71 1017.7
20211022163029 81 139 0.0 4.0 0.00 0.00 0.00 72 1017.8
20211022161634 81 175 0.0 2.0 0.00 0.00 0.00 73 1017.8
20211022160020 79 150 0.0 1.0 0.00 0.00 0.00 76 1017.9
20211022154621 78 192 0.0 3.0 0.00 0.00 0.00 78 1018.1
20211022153050 76 42 0.0 1.0 0.00 0.00 0.00 79 1018.1
20211022151513 75 72 0.0 0.0 0.00 0.00 0.00 82 1018.1
20211022150109 74 136 0.0 2.0 0.00 0.00 0.00 83 1018.3
20211022144505 73 110 0.0 3.0 0.00 0.00 0.00 84 1018.2
20211022143218 72 98 0.0 0.0 0.00 0.00 0.00 88 1018.1
20211022141525 71 67 0.0 8.0 0.00 0.00 0.00 91 1017.9
20211022140105 70 52 0.0 0.0 0.00 0.00 0.00 95 1017.8
20211022134531 68 30 0.0 0.0 0.00 0.00 0.00 97 1017.6
20211022133244 67 135 0.0 0.0 0.00 0.00 0.00 98 1017.5
20211022131529 65 198 0.0 0.0 0.00 0.00 0.00 97 1017.5
20211022124544 65 198 0.0 0.0 0.00 0.00 0.00 97 1017.2
20211022123126 66 198 0.0 4.0 0.00 0.00 0.00 97 1017.2
20211022121621 66 282 0.0 0.0 0.00 0.00 0.00 96 1017.3
20211022114613 67 283 0.0 0.0 0.00 0.00 0.00 97 1017.2
20211022113014 67 17 0.0 0.0 0.00 0.00 0.00 97 1017.2
20211022111619 67 17 0.0 0.0 0.00 0.00 0.00 97 1017.0
20211022110003 67 17 0.0 0.0 0.00 0.00 0.00 97 1016.8
20211022104614 67 17 0.0 0.0 0.00 0.00 0.00 97 1016.8
20211022103019 67 17 0.0 0.0 0.00 0.00 0.00 97 1016.6
20211022101627 67 17 0.0 0.0 0.00 0.00 0.00 97 1016.6
20211022100020 67 17 0.0 0.0 0.00 0.00 0.00 97 1016.4
20211022094706 67 17 0.0 0.0 0.00 0.00 0.00 96 1016.5
20211022093035 67 266 0.0 0.0 0.00 0.00 0.00 97 1016.5
20211022091517 67 179 0.0 0.0 0.00 0.00 0.00 96 1016.5
20211022090131 67 157 0.0 0.0 0.00 0.00 0.00 96 1016.6
20211022084646 68 155 0.0 0.0 0.00 0.00 0.00 96 1016.8
20211022084502 68 155 0.0 0.0 0.00 0.00 0.00 96 1016.8
20211022083118 68 155 0.0 0.0 0.00 0.00 0.00 96 1017.1
20211022081531 68 155 0.0 0.0 0.00 0.00 0.00 96 1017.3
20211022080126 68 155 0.0 0.0 0.00 0.00 0.00 96 1017.3
20211022074514 68 155 0.0 0.0 0.00 0.00 0.00 96 1017.4
20211022073120 68 155 0.0 0.0 0.00 0.00 0.00 95 1017.3
20211022071530 68 153 0.0 0.0 0.00 0.00 0.00 95 1017.3